Location: Gunung Kajang
(2.4167°N, 113.7167°E)
Time: 23:26:47
(UTC+00:00)

Meteor 1-27 - Pass Details

Date: 29 May 2022
Orbit: 837 x 892 km, 81.3° (Epoch: 24 June)

Event Time Altitude Azimuth Distance (km) Brightness Sun altitude
Rises 20:40:04 0° 348° (NNW) 3,414 7.5 -22.7°
Reaches altitude 10° 20:42:31 10° 345° (NNW) 2,472 6.7 -22.2°
Maximum altitude 20:48:01 60° 266° (W) 959 4.1 -20.9°
Enters shadow 20:52:39 15° 188° (S) 2,144 6.0 -19.8°
